Date String (YYYY-MM-DD hh:mm:ss) UTC,Instrument flags,Ambient pressure (hPa),Sample flow (lpm),Bypass flow (lpm),Sample temperature (°C),Ambient temperature (°C),ASC tube jacket temperature (°C),LED temperature (°C),Box temperature (°C),Sample RH (%),Span deviation,Mass concentration (μg/m³),Mass concentration (μg/m³),Mass concentration (μg/m³)
DateTimeUTC,F1_M11,P_M11,Q1_M11,Q2_M11,T1_M11,T2_M11,T3_M11,T4_M11,T5_M11,U1_M11,ZSPAN_M11,X0_M11,X2_M11,X1_M11
2022-05-12 15:00:00,,0819.0,4.99,0.00,29.0,28.2,00.0,37.9,30.7,28.7,-001.5,0032.71,0015.09,0011.17
2022-05-12 15:01:00,,0819.1,5.00,0.00,29.0,28.2,00.0,37.9,30.8,28.7,-001.5,0032.06,0015.15,0011.16
2022-05-12 15:02:00,,0819.0,5.01,0.00,29.0,28.2,00.0,37.9,30.8,28.7,-001.4,0031.78,0015.12,0011.14
2022-05-12 15:03:00,,0819.1,5.00,0.00,29.0,28.2,00.0,37.9,30.8,28.6,-001.5,0031.48,0015.04,0011.14
2022-05-12 15:04:00,,0819.1,4.99,0.00,29.0,28.3,00.0,37.9,30.8,28.6,-001.7,0031.90,0015.00,0011.14
2022-05-12 15:05:00,,0819.1,4.98,0.00,29.0,28.3,00.0,37.9,30.8,28.6,-001.7,0031.68,0015.11,0011.17
2022-05-12 15:06:00,,0819.1,5.01,0.00,29.0,28.3,00.0,37.9,30.8,28.9,-001.4,0032.76,0015.14,0011.19
2022-05-12 15:07:00,,0819.1,5.00,0.00,29.0,28.3,00.0,37.9,30.8,28.9,-001.2,0032.92,0015.10,0011.20
2022-05-12 15:08:00,,0819.2,5.01,0.00,29.0,28.3,00.0,37.9,30.8,29.1,-001.1,0033.07,0015.06,0011.21
2022-05-12 15:09:00,,0819.3,5.01,0.00,29.0,28.3,00.0,37.9,30.9,28.6,-001.1,0034.15,0015.03,0011.23
2022-05-12 15:10:00,,0819.3,5.00,0.00,29.1,28.3,00.0,37.9,30.8,28.4,-001.3,0034.85,0015.05,0011.26
2022-05-12 15:11:00,,0819.3,4.99,0.00,29.1,28.3,00.0,38.0,30.9,28.3,-001.5,0034.78,0014.98,0011.27
2022-05-12 15:12:00,,0819.2,5.00,0.00,29.1,28.3,00.0,38.0,30.8,28.2,-001.4,0035.28,0014.93,0011.29
2022-05-12 15:13:00,,0819.4,5.01,0.00,29.1,28.3,00.0,38.0,30.9,28.3,-001.6,0034.60,0014.96,0011.33
2022-05-12 15:14:00,,0819.4,5.01,0.00,29.1,28.3,00.0,38.0,30.9,28.4,-001.6,0034.71,0015.00,0011.36
2022-05-12 15:15:00,,0819.5,4.99,0.00,29.1,28.4,00.0,38.0,30.9,28.5,-001.7,0034.97,0015.03,0011.36
2022-05-12 15:16:00,,0819.6,5.00,0.00,29.1,28.4,00.0,38.0,30.9,28.4,-001.5,0036.32,0015.02,0011.35
2022-05-12 15:17:00,,0819.6,5.00,0.00,29.1,28.4,00.0,38.0,30.9,28.1,-001.6,0036.70,0014.98,0011.34
2022-05-12 15:18:00,,0819.7,5.00,0.00,29.1,28.4,00.0,38.0,30.9,28.0,-001.6,0037.62,0015.00,0011.31
2022-05-12 15:19:00,,0819.7,4.99,0.00,29.1,28.4,00.0,38.0,30.9,28.0,-001.3,0038.15,0015.02,0011.26
2022-05-12 15:20:00,,0819.7,5.00,0.00,29.1,28.4,00.0,38.0,30.9,28.1,-001.4,0037.77,0014.94,0011.20
2022-05-12 15:21:00,,0819.7,4.99,0.00,29.1,28.4,00.0,38.0,30.9,28.2,-001.5,0036.86,0014.89,0011.12
2022-05-12 15:22:00,,0819.7,5.00,0.00,29.1,28.4,00.0,38.0,30.9,28.1,-001.5,0036.09,0014.91,0011.07
2022-05-12 15:23:00,,0819.6,5.00,0.00,29.1,28.4,00.0,38.0,30.9,28.2,-001.6,0036.35,0014.92,0011.05
2022-05-12 15:24:00,,0819.5,5.00,0.00,29.1,28.4,00.0,38.0,30.9,28.1,-001.5,0035.92,0014.88,0011.03
2022-05-12 15:25:00,,0819.5,5.01,0.00,29.1,28.4,00.0,38.0,30.9,28.0,-001.5,0035.68,0014.85,0011.02
2022-05-12 15:26:00,,0819.5,4.99,0.00,29.1,28.4,00.0,38.0,30.9,28.0,-001.5,0035.06,0014.83,0010.99
2022-05-12 15:27:00,,0819.5,4.99,0.00,29.1,28.4,00.0,38.0,30.9,28.0,-001.6,0033.83,0014.71,0010.96
2022-05-12 15:28:00,,0819.5,5.00,0.00,29.2,28.4,00.0,38.0,31.0,28.2,-001.6,0032.70,0014.67,0010.94
2022-05-12 15:29:00,,0819.4,5.00,0.00,29.2,28.5,00.0,38.1,31.0,28.3,-001.7,0031.82,0014.65,0010.90
2022-05-12 15:30:00,,0819.4,5.00,0.00,29.2,28.5,00.0,38.1,31.0,28.4,-001.8,0031.16,0014.59,0010.90
2022-05-12 15:31:00,,0819.5,5.00,0.00,29.2,28.5,00.0,38.1,31.0,28.4,-001.7,0030.87,0014.49,0010.90
2022-05-12 15:32:00,,0819.5,5.00,0.00,29.2,28.5,00.0,38.1,31.0,29.0,-001.5,0031.17,0014.46,0010.89
2022-05-12 15:33:00,,0819.5,5.00,0.00,29.2,28.5,00.0,38.1,31.0,29.6,-001.3,0031.40,0014.45,0010.89
2022-05-12 15:34:00,,0819.4,4.99,0.00,29.2,28.5,00.0,38.1,31.0,29.0,-001.1,0030.42,0014.33,0010.87
2022-05-12 15:35:00,,0819.4,5.00,0.00,29.3,28.5,00.0,38.1,31.0,28.2,-001.1,0030.12,0014.21,0010.83
2022-05-12 15:36:00,,0819.3,5.00,0.00,29.3,28.5,00.0,38.1,31.0,28.2,-001.2,0030.71,0014.03,0010.76
2022-05-12 15:37:00,,0819.4,4.99,0.00,29.3,28.6,00.0,38.1,31.1,28.0,-001.3,0031.47,0013.93,0010.73
2022-05-12 15:38:00,,0819.4,5.01,0.00,29.3,28.6,00.0,38.2,31.1,28.4,-001.4,0030.77,0013.87,0010.71
2022-05-12 15:39:00,,0819.4,5.00,0.00,29.3,28.5,00.0,38.2,31.1,28.2,-001.3,0030.83,0013.84,0010.69
2022-05-12 15:40:00,,0819.4,5.00,0.00,29.3,28.6,00.0,38.2,31.1,28.1,-001.4,0030.88,0013.77,0010.69
2022-05-12 15:41:00,,0819.2,5.00,0.00,29.3,28.6,00.0,38.2,31.1,27.7,-001.7,0030.84,0013.80,0010.72
2022-05-12 15:42:00,,0819.2,5.01,0.00,29.3,28.6,00.0,38.2,31.1,27.3,-001.9,0032.59,0013.85,0010.75
2022-05-12 15:43:00,,0819.3,5.00,0.00,29.3,28.6,00.0,38.2,31.1,27.2,-001.9,0031.67,0013.96,0010.78
2022-05-12 15:44:00,,0819.2,4.99,0.00,29.3,28.6,00.0,38.2,31.1,27.0,-002.2,0031.30,0013.95,0010.79
2022-05-12 15:45:00,,0819.3,5.00,0.00,29.4,28.6,00.0,38.2,31.2,28.0,-002.1,0031.16,0013.99,0010.83
2022-05-12 15:46:00,,0819.3,5.00,0.00,29.4,28.6,00.0,38.2,31.2,28.0,-002.1,0032.07,0014.18,0010.89
2022-05-12 15:47:00,,0819.3,5.00,0.00,29.4,28.6,00.0,38.3,31.2,28.0,-001.8,0031.57,0014.36,0010.95
2022-05-12 15:48:00,,0819.2,5.01,0.00,29.4,28.7,00.0,38.3,31.2,27.9,-001.6,0031.03,0014.58,0011.01
2022-05-12 15:49:00,,0819.3,4.98,0.00,29.4,28.7,00.0,38.3,31.2,27.4,-001.6,0030.99,0014.67,0011.06
2022-05-12 15:50:00,,0819.4,4.99,0.00,29.4,28.7,00.0,38.3,31.2,27.9,-001.9,0030.60,0014.65,0011.12
2022-05-12 15:51:00,,0819.4,5.00,0.00,29.4,28.7,00.0,38.3,31.2,27.7,-001.9,0031.49,0014.81,0011.21
2022-05-12 15:52:00,,0819.3,4.99,0.00,29.5,28.7,00.0,38.3,31.2,27.7,-001.8,0031.44,0014.86,0011.22
2022-05-12 15:53:00,,0819.3,5.00,0.00,29.5,28.7,00.0,38.3,31.2,27.0,-001.6,0029.85,0014.95,0011.22
2022-05-12 15:54:00,,0819.2,5.00,0.00,29.5,28.8,00.0,38.3,31.2,27.0,-001.7,0030.00,0014.94,0011.24
2022-05-12 15:55:00,,0819.2,5.00,0.00,29.5,28.8,00.0,38.4,31.3,26.7,-001.5,0030.47,0014.98,0011.27
2022-05-12 15:56:00,,0819.2,4.99,0.00,29.5,28.8,00.0,38.4,31.3,25.7,-001.5,0030.56,0014.93,0011.24
2022-05-12 15:57:00,,0819.2,5.00,0.00,29.5,28.8,00.0,38.4,31.3,22.0,-001.5,0030.33,0014.68,0011.00
2022-05-12 15:58:00,,0819.2,5.00,0.00,29.5,28.8,00.0,38.4,31.3,19.5,-001.7,0030.67,0014.31,0010.68
2022-05-12 15:59:00,,0819.2,5.01,0.00,29.5,28.8,00.0,38.4,31.3,16.3,-001.7,0031.24,0013.77,0010.20
